Lorton, VA

6:22 AM EST on January 23, 2017 (GMT -0500)
Davison Army Air Field

Weather History for KDAA - February, 2014

Change the Weather History Date:

Tuesday, February 25, 2014

  Actual Average Record
Temperature  
Mean Temperature 30 °F -  
Max Temperature 37 °F 49 °F 68 °F (2011)
Min Temperature 24 °F 31 °F 12 °F (2015)
Degree Days  
Heating Degree Days 34    
Moisture  
Dew Point 25 °F    
Average Humidity 78    
Maximum Humidity 93    
Minimum Humidity 44    
Precipitation  
Precipitation 0.01 in - - ()
Snow  
Snow 0.00 in - - ()
Snow Depth 2.00 in    
Sea Level Pressure  
Sea Level Pressure 30.10 in    
Wind  
Wind Speed 2 mph (WNW)    
Max Wind Speed 10 mph    
Max Gust Speed -    
Visibility 6 miles    
Events Fog , Snow    
Averages and records for this station are not official NWS values.
T = Trace of Precipitation, MM = Missing Value Source: NWS Daily Summary

Daily Weather History Graph

Daily Weather History Graph

Search for Another Location

Airport or City:

Trip Planner

Search our weather history database for the weather conditions in past years. The results will help you decide how hot, cold, wet, or windy it might be!

Date:

Astronomy

Feb. 25, 2014 Rise Set
Actual Time 6:46 AM EST 5:57 PM EST
Civil Twilight 6:19 AM EST 6:24 PM EST
Nautical Twilight 5:49 AM EST 6:55 PM EST
Astronomical Twilight 5:18 AM EST 7:25 PM EST
Moon 3:37 AM EST (2/25) 2:02 PM EST (2/25)
Length of Visible Light 12h 04m
Length of Day
11h 10m
Waning Crescent, 18% of the Moon is Illuminated
Feb 25
Waning Crescent
Mar 1
New
Mar 8
First Quarter
Mar 16
Full
Mar 23
Last Quarter

Hourly Weather History & Observations

Time (EST) Temp. Windchill Dew Point Humidity Pressure Visibility Wind Dir Wind Speed Gust Speed Precip Events Conditions
12:58 AM 24.8 °F - 14.0 °F 64% 30.15 in 10.0 mi Calm Calm - N/A   Clear
1:58 AM 24.8 °F - 15.8 °F 69% 30.14 in 10.0 mi NNW 1.2 mph - N/A   Mostly Cloudy
2:58 AM 26.6 °F - 17.6 °F 69% 30.12 in 10.0 mi Calm Calm - N/A   Scattered Clouds
3:58 AM 26.6 °F - 21.2 °F 80% 30.12 in 10.0 mi Calm Calm - N/A   Mostly Cloudy
4:58 AM 32.0 °F 26.4 °F 17.6 °F 55% 30.12 in 10.0 mi South 5.8 mph - N/A   Scattered Clouds
5:58 AM 32.0 °F - 12.2 °F 44% 30.14 in 10.0 mi SSW 1.2 mph - N/A   Clear
6:58 AM 30.2 °F - 21.2 °F 69% 30.14 in 10.0 mi NNE 1.2 mph - N/A   Clear
7:58 AM 32.0 °F - 17.6 °F 55% 30.15 in 5.0 mi East 2.3 mph - N/A Snow Light Snow
8:02 AM 32.0 °F 28.7 °F 17.6 °F 55% 30.14 in 10.0 mi Variable 3.5 mph - N/A   Scattered Clouds
8:03 AM 32.0 °F 27.5 °F 19.4 °F 60% 30.14 in 10.0 mi Variable 4.6 mph - N/A   Partly Cloudy
8:18 AM 32.0 °F 27.5 °F 17.6 °F 55% 30.14 in 9.0 mi Variable 4.6 mph - N/A Snow Light Snow
8:23 AM 32.0 °F 28.7 °F 17.6 °F 55% 30.14 in 10.0 mi SSE 3.5 mph - N/A Snow Light Snow
8:33 AM 32.0 °F - 17.6 °F 55% 30.15 in 10.0 mi WSW 2.3 mph - N/A Snow Light Snow
8:38 AM 32.0 °F 25.6 °F 19.4 °F 60% 30.15 in 10.0 mi South 6.9 mph - N/A Snow Light Snow
8:58 AM 32.0 °F 28.7 °F 23.0 °F 69% 30.17 in 6.0 mi Variable 3.5 mph - N/A Snow Light Snow
9:19 AM 32.0 °F - 24.8 °F 75% 30.15 in 3.0 mi SE 1.2 mph - N/A Snow Light Snow
9:22 AM 32.0 °F - 24.8 °F 75% 30.15 in 1.8 mi Calm Calm - N/A Snow Light Snow
9:23 AM 32.0 °F - 24.8 °F 75% 30.15 in 1.8 mi Calm Calm - N/A Snow Light Snow
9:28 AM 32.0 °F - 24.8 °F 75% 30.15 in 1.5 mi Calm Calm - N/A Snow Light Snow
9:33 AM 32.0 °F - 26.6 °F 80% 30.15 in 1.2 mi Calm Calm - N/A Snow Light Snow
9:48 AM 32.0 °F - 28.4 °F 87% 30.15 in 1.0 mi Calm Calm - N/A Snow Light Snow
9:53 AM 32.0 °F - 28.4 °F 87% 30.15 in 0.8 mi Variable 1.2 mph - N/A Snow Light Snow
9:58 AM 32.0 °F - 28.4 °F 87% 30.17 in 0.8 mi Calm Calm - N/A Snow Light Snow
10:03 AM 32.0 °F - 28.4 °F 87% 30.15 in 1.0 mi NNW 1.2 mph - N/A Snow Light Snow
10:08 AM 32.0 °F - 28.4 °F 87% 30.15 in 1.2 mi Calm Calm - N/A Snow Light Snow
10:23 AM 32.0 °F - 28.4 °F 87% 30.14 in 1.0 mi Calm Calm - N/A Snow Light Snow
10:28 AM 32.0 °F - 28.4 °F 87% 30.14 in 0.8 mi Calm Calm - N/A Snow Light Snow
10:33 AM 32.0 °F - 28.4 °F 87% 30.14 in 0.8 mi Calm Calm - N/A Snow Light Snow
10:43 AM 32.0 °F - 28.4 °F 87% 30.14 in 0.8 mi Calm Calm - N/A Snow Light Snow
10:53 AM 32.0 °F - 28.4 °F 87% 30.14 in 1.0 mi Calm Calm - N/A Snow Light Snow
10:58 AM 32.0 °F - 28.4 °F 87% 30.15 in 1.0 mi Calm Calm - N/A Snow Light Snow
11:03 AM 32.0 °F - 28.4 °F 87% 30.14 in 1.2 mi Calm Calm - N/A Snow Light Snow
11:08 AM 32.0 °F - 28.4 °F 87% 30.13 in 1.0 mi Calm Calm - N/A Snow Light Snow
11:13 AM 30.2 °F - 28.4 °F 93% 30.13 in 1.0 mi Calm Calm - N/A Snow Light Snow
11:18 AM 32.0 °F - 30.2 °F 93% 30.13 in 0.8 mi Calm Calm - N/A Snow Light Snow
11:28 AM 30.2 °F - 28.4 °F 93% 30.13 in 0.5 mi Calm Calm - N/A Fog , Snow Light Freezing Fog
11:48 AM 32.0 °F - 30.2 °F 93% 30.12 in 0.8 mi NW 2.3 mph - N/A Snow Light Snow
11:53 AM 32.0 °F - 30.2 °F 93% 30.12 in 0.8 mi NW 2.3 mph - N/A Snow Light Snow
11:58 AM 32.0 °F 28.7 °F 30.2 °F 93% 30.12 in 0.8 mi NW 3.5 mph - N/A Snow Light Snow
12:03 PM 32.0 °F - 30.2 °F 93% 30.11 in 0.8 mi WNW 2.3 mph - N/A Snow Light Snow
12:08 PM 32.0 °F 27.5 °F 28.4 °F 87% 30.11 in 1.0 mi WNW 4.6 mph - N/A Snow Light Snow
12:13 PM 32.0 °F 28.7 °F 28.4 °F 87% 30.11 in 1.5 mi WNW 3.5 mph - N/A Snow Light Snow
12:18 PM 32.0 °F 28.7 °F 28.4 °F 87% 30.10 in 2.5 mi West 3.5 mph - N/A Snow Light Snow
12:23 PM 32.0 °F - 28.4 °F 87% 30.10 in 3.0 mi NW 1.2 mph - N/A Snow Light Snow
12:28 PM 32.0 °F - 28.4 °F 87% 30.09 in 3.0 mi Calm Calm - N/A Snow Light Snow
12:53 PM 32.0 °F - 28.4 °F 87% 30.08 in 8.0 mi Calm Calm - N/A Snow Light Snow
12:58 PM 32.0 °F - 28.4 °F 87% 30.09 in 9.0 mi Calm Calm - 0.01 in Snow Light Snow
1:12 PM 32.0 °F - 28.4 °F 87% 30.06 in 10.0 mi Variable 1.2 mph - N/A   Overcast
1:17 PM 32.0 °F 28.7 °F 28.4 °F 87% 30.06 in 10.0 mi West 3.5 mph - N/A   Overcast
1:32 PM 32.0 °F 27.5 °F 28.4 °F 87% 30.05 in 10.0 mi Variable 4.6 mph - N/A   Overcast
1:37 PM 32.0 °F 27.5 °F 28.4 °F 87% 30.05 in 10.0 mi West 4.6 mph - N/A   Overcast
1:42 PM 32.0 °F 25.6 °F 28.4 °F 87% 30.05 in 10.0 mi WNW 6.9 mph - N/A   Overcast
1:47 PM 32.0 °F 26.4 °F 28.4 °F 87% 30.05 in 10.0 mi WNW 5.8 mph - N/A   Overcast
1:52 PM 32.0 °F 27.5 °F 28.4 °F 87% 30.04 in 10.0 mi NW 4.6 mph - N/A   Overcast
1:58 PM 32.0 °F 27.5 °F 28.4 °F 87% 30.06 in 10.0 mi NW 4.6 mph - N/A   Overcast
2:23 PM 33.8 °F 27.7 °F 28.4 °F 81% 30.03 in 10.0 mi West 6.9 mph - N/A   Mostly Cloudy
2:48 PM 35.6 °F 30.7 °F 26.6 °F 70% 30.03 in 10.0 mi WNW 5.8 mph - N/A   Scattered Clouds
2:53 PM 35.6 °F 29.9 °F 28.4 °F 75% 30.03 in 10.0 mi WNW 6.9 mph - N/A   Mostly Cloudy
2:58 PM 35.6 °F 28.6 °F 26.6 °F 70% 30.04 in 10.0 mi WNW 9.2 mph - N/A   Mostly Cloudy
3:03 PM 35.6 °F 28.0 °F 26.6 °F 70% 30.02 in 10.0 mi WNW 10.4 mph - N/A   Mostly Cloudy
3:33 PM 37.4 °F 33.8 °F 26.6 °F 65% 30.02 in 10.0 mi NW 4.6 mph - N/A   Overcast
3:38 PM 37.4 °F 31.4 °F 26.6 °F 65% 30.02 in 10.0 mi West 8.1 mph - N/A   Overcast
3:46 PM 35.6 °F 29.2 °F 24.8 °F 65% 30.02 in 10.0 mi NNW 8.1 mph - N/A   Mostly Cloudy
3:58 PM 35.6 °F 30.7 °F 26.6 °F 70% 30.04 in 9.0 mi NNW 5.8 mph - N/A Snow Light Snow
4:12 PM 35.6 °F 32.8 °F 28.4 °F 75% 30.02 in 10.0 mi NW 3.5 mph - N/A   Overcast
4:17 PM 35.6 °F 32.8 °F 28.4 °F 75% 30.02 in 10.0 mi WNW 3.5 mph - N/A   Overcast
4:58 PM 37.4 °F 33.8 °F 26.6 °F 65% 30.04 in 10.0 mi WSW 4.6 mph - N/A   Mostly Cloudy
5:58 PM 32.0 °F - 24.8 °F 75% 30.04 in 10.0 mi Calm Calm - N/A   Clear
6:58 PM 30.2 °F - 26.6 °F 86% 30.06 in 10.0 mi Calm Calm - N/A   Clear
7:58 PM 32.0 °F 26.4 °F 21.2 °F 64% 30.07 in 10.0 mi WNW 5.8 mph - N/A   Clear
8:58 PM 28.4 °F - 23.0 °F 80% 30.07 in 10.0 mi WNW 1.2 mph - N/A   Clear
9:58 PM 24.8 °F - 21.2 °F 86% 30.06 in 10.0 mi SSE 1.2 mph - N/A   Scattered Clouds
10:58 PM 26.6 °F - 23.0 °F 86% 30.06 in 10.0 mi Calm Calm - N/A   Mostly Cloudy
11:58 PM 26.6 °F - 21.2 °F 80% 30.06 in 10.0 mi South 1.2 mph - N/A   Overcast